sat.trackr.live / text

‹ back to catalog

YAM-14

NORAD 69008 · 2026-100AE

PAYLOAD ACTIVE UNKNOWN

§ Identity

Operator
Country
US
Launch date
2026-05-03
Launch site
AFWTR
Launch vehicle
Mass (kg)
RCS (m²)

External: N2YO · Heavens-Above · Gunter

§ Orbital elements

Epoch: 2026-09-20T02:07:05.848032Z

Period
96.62 min
Inclination
97.7751°
Eccentricity
0.0001601
Mean motion
14.90411103 rev/d
Perigee alt
595.5 km
Apogee alt
597.8 km
Semi-major
6,974.8 km
B*
5.6316e-5
RAAN
158.8847°
Arg perigee
66.9691°
Mean anomaly
293.1696°
Rev number
2,082

§ Raw data

YAM-141 69008U 26100AE  26263.08826213  .00000494  00000+0  56316-4 0  99922 69008  97.7751 158.8847 0001601  66.9691 293.1696 14.90411103 20829

JSON: /api/v1/satellites/69008 · /tle

For live sub-satellite position, see the globe view (requires WebGL).

§ Visibility from observer

Set your observer location to see the next 7 days of passes ≥ 10°. The values pass through the URL so the page stays shareable.

No JS? Fill the form by hand. The geolocation button needs JavaScript.

§ Radio — SatNOGS DB

ModeDescriptionDownlinkUplink
UNKNOWN S-band telemetry 2.255 GHz

1 transmitter · refreshed weekly from db.satnogs.org